Year,Month,Day,Hour,Minute,Value (Times are PST for temperature in C)
2007,10,01,00,00,9.20
2007,10,01,00,01,9.20
2007,10,01,00,02,9.20
2007,10,01,00,03,9.20
2007,10,01,00,04,9.20
2007,10,01,00,05,9.10
2007,10,01,00,06,9.10
2007,10,01,00,07,9.10
2007,10,01,00,08,9.10
2007,10,01,00,09,9.10
2007,10,01,00,10,9.00
2007,10,01,00,11,9.00
2007,10,01,00,12,9.00
2007,10,01,00,13,8.90
2007,10,01,00,14,8.90
2007,10,01,00,15,8.90
2007,10,01,00,16,8.90
2007,10,01,00,17,8.80
2007,10,01,00,18,8.90
2007,10,01,00,19,8.90
2007,10,01,00,20,8.90
2007,10,01,00,21,8.90
2007,10,01,00,22,8.90
2007,10,01,00,23,8.90
2007,10,01,00,24,8.90
2007,10,01,00,25,8.90
2007,10,01,00,26,8.90
2007,10,01,00,27,8.90
2007,10,01,00,28,8.90
2007,10,01,00,29,8.90
2007,10,01,00,30,8.90
2007,10,01,00,31,8.90
2007,10,01,00,32,8.90
2007,10,01,00,33,8.90
2007,10,01,00,34,8.90
2007,10,01,00,35,8.90
2007,10,01,00,36,8.90
2007,10,01,00,37,8.90
2007,10,01,00,38,8.90
2007,10,01,00,39,8.90
2007,10,01,00,40,8.90
2007,10,01,00,41,8.80
2007,10,01,00,42,8.80
2007,10,01,00,43,8.80
2007,10,01,00,44,8.80
2007,10,01,00,45,8.80
2007,10,01,00,46,8.80
2007,10,01,00,47,8.80
2007,10,01,00,48,8.80
2007,10,01,00,49,8.80
2007,10,01,00,50,8.80
2007,10,01,00,51,8.80
2007,10,01,00,52,8.80
2007,10,01,00,53,8.80
2007,10,01,00,54,8.80
2007,10,01,00,55,8.80
2007,10,01,00,56,8.80
2007,10,01,00,57,8.80
2007,10,01,00,58,8.80
2007,10,01,00,59,8.90
2007,10,01,01,00,8.90
2007,10,01,01,01,8.90
2007,10,01,01,02,8.90
2007,10,01,01,03,9.00
2007,10,01,01,04,9.00
2007,10,01,01,05,9.00
2007,10,01,01,06,9.00
2007,10,01,01,07,9.10
2007,10,01,01,08,9.10
2007,10,01,01,09,9.10
2007,10,01,01,10,9.10
2007,10,01,01,11,9.10
2007,10,01,01,12,9.10
2007,10,01,01,13,9.10
2007,10,01,01,14,9.10
2007,10,01,01,15,9.10
2007,10,01,01,16,9.10
2007,10,01,01,17,9.10
2007,10,01,01,18,9.10
2007,10,01,01,19,9.10
2007,10,01,01,20,9.10
2007,10,01,01,21,9.10
2007,10,01,01,22,9.10
2007,10,01,01,23,9.10
2007,10,01,01,24,9.10
2007,10,01,01,25,9.10
2007,10,01,01,26,9.00
2007,10,01,01,27,9.00
2007,10,01,01,28,9.00
2007,10,01,01,29,8.90
2007,10,01,01,30,8.90
2007,10,01,01,31,8.90
2007,10,01,01,32,8.90
2007,10,01,01,33,8.90
2007,10,01,01,34,8.90
2007,10,01,01,35,8.90
2007,10,01,01,36,8.90
2007,10,01,01,37,8.90
2007,10,01,01,38,8.90
2007,10,01,01,39,8.90
2007,10,01,01,40,8.80
2007,10,01,01,41,8.80
2007,10,01,01,42,8.80
2007,10,01,01,43,8.80
2007,10,01,01,44,8.80
2007,10,01,01,45,8.70
2007,10,01,01,46,8.70
2007,10,01,01,47,8.70
2007,10,01,01,48,8.70
2007,10,01,01,49,8.70
2007,10,01,01,50,8.80
2007,10,01,01,51,8.80
2007,10,01,01,52,8.80
2007,10,01,01,53,8.80
2007,10,01,01,54,8.80
2007,10,01,01,55,8.80
2007,10,01,01,56,8.80
2007,10,01,01,57,8.80
2007,10,01,01,58,8.80
2007,10,01,01,59,8.70
2007,10,01,02,00,8.70
2007,10,01,02,01,8.80
2007,10,01,02,02,8.80
2007,10,01,02,03,8.80
2007,10,01,02,04,8.80
2007,10,01,02,05,8.80
2007,10,01,02,06,8.80
2007,10,01,02,07,8.80
2007,10,01,02,08,8.80
2007,10,01,02,09,8.80
2007,10,01,02,10,8.70
2007,10,01,02,11,8.70
2007,10,01,02,12,8.70
2007,10,01,02,13,8.70
2007,10,01,02,14,8.60
2007,10,01,02,15,8.60
2007,10,01,02,16,8.60
2007,10,01,02,17,8.60
2007,10,01,02,18,8.60
2007,10,01,02,19,8.60
2007,10,01,02,20,8.60
2007,10,01,02,21,8.60
2007,10,01,02,22,8.60
2007,10,01,02,23,8.60
2007,10,01,02,24,8.60
2007,10,01,02,25,8.60
2007,10,01,02,26,8.60
2007,10,01,02,27,8.60
2007,10,01,02,28,8.60
2007,10,01,02,29,8.70
2007,10,01,02,30,8.70
2007,10,01,02,31,8.70
2007,10,01,02,32,8.70
2007,10,01,02,33,8.70
2007,10,01,02,34,8.70
2007,10,01,02,35,8.70
2007,10,01,02,36,8.70
2007,10,01,02,37,8.70
2007,10,01,02,38,8.60
2007,10,01,02,39,8.60
2007,10,01,02,40,8.70
2007,10,01,02,41,8.70
2007,10,01,02,42,8.60
2007,10,01,02,43,8.60
2007,10,01,02,44,8.60
2007,10,01,02,45,8.60
2007,10,01,02,46,8.50
2007,10,01,02,47,8.50
2007,10,01,02,48,8.50
2007,10,01,02,49,8.50
2007,10,01,02,50,8.50
2007,10,01,02,51,8.50
2007,10,01,02,52,8.50
2007,10,01,02,53,8.50
2007,10,01,02,54,8.60
2007,10,01,02,55,8.60
2007,10,01,02,56,8.60
2007,10,01,02,57,8.60
2007,10,01,02,58,8.50
2007,10,01,02,59,8.50
2007,10,01,03,00,8.50
2007,10,01,03,01,8.50
2007,10,01,03,02,8.50
2007,10,01,03,03,8.40
2007,10,01,03,04,8.40
2007,10,01,03,05,8.40
2007,10,01,03,06,8.40
2007,10,01,03,07,8.40
2007,10,01,03,08,8.40
2007,10,01,03,09,8.50
2007,10,01,03,10,8.50
2007,10,01,03,11,8.50
2007,10,01,03,12,8.60
2007,10,01,03,13,8.60
2007,10,01,03,14,8.60
2007,10,01,03,15,8.60
2007,10,01,03,16,8.60
2007,10,01,03,17,8.60
2007,10,01,03,18,8.60
2007,10,01,03,19,8.50
2007,10,01,03,20,8.50
2007,10,01,03,21,8.40
2007,10,01,03,22,8.40
2007,10,01,03,23,8.40
2007,10,01,03,24,8.40
2007,10,01,03,25,8.40
2007,10,01,03,26,8.40
2007,10,01,03,27,8.40
2007,10,01,03,28,8.30
2007,10,01,03,29,8.40
2007,10,01,03,30,8.40
2007,10,01,03,31,8.40
2007,10,01,03,32,8.40
2007,10,01,03,33,8.40
2007,10,01,03,34,8.40
2007,10,01,03,35,8.40
2007,10,01,03,36,8.40
2007,10,01,03,37,8.40
2007,10,01,03,38,8.40
2007,10,01,03,39,8.50
2007,10,01,03,40,8.50
2007,10,01,03,41,8.50
2007,10,01,03,42,8.60
2007,10,01,03,43,8.60
2007,10,01,03,44,8.60
2007,10,01,03,45,8.70
2007,10,01,03,46,8.70
2007,10,01,03,47,8.70
2007,10,01,03,48,8.70
2007,10,01,03,49,8.80
2007,10,01,03,50,8.80
2007,10,01,03,51,8.80
2007,10,01,03,52,8.80
2007,10,01,03,53,8.80
2007,10,01,03,54,8.90
2007,10,01,03,55,8.90
2007,10,01,03,56,8.90
2007,10,01,03,57,8.90
2007,10,01,03,58,9.00
2007,10,01,03,59,9.00
2007,10,01,04,00,9.00
2007,10,01,04,01,9.10
2007,10,01,04,02,9.10
2007,10,01,04,03,9.10
2007,10,01,04,04,9.10
2007,10,01,04,05,9.20
2007,10,01,04,06,9.20
2007,10,01,04,07,9.20
2007,10,01,04,08,9.20
2007,10,01,04,09,9.20
2007,10,01,04,10,9.20
2007,10,01,04,11,9.20
2007,10,01,04,12,9.20
2007,10,01,04,28,9.40
2007,10,01,04,35,9.30
2007,10,01,04,50,8.80
2007,10,01,04,52,8.70
2007,10,01,04,53,8.70
2007,10,01,04,54,8.60
2007,10,01,04,55,8.60
2007,10,01,04,56,8.60
2007,10,01,04,57,8.50
2007,10,01,04,58,8.50
2007,10,01,04,59,8.40
2007,10,01,05,00,8.40
2007,10,01,05,01,8.30
2007,10,01,05,02,8.30
2007,10,01,05,03,8.20
2007,10,01,05,04,8.20
2007,10,01,05,05,8.20
2007,10,01,05,06,8.20
2007,10,01,05,07,8.20
2007,10,01,05,08,8.20
2007,10,01,05,09,8.10
2007,10,01,05,10,8.10
2007,10,01,05,11,8.10
2007,10,01,05,12,8.10
2007,10,01,05,13,8.10
2007,10,01,05,14,8.10
2007,10,01,05,15,8.10
2007,10,01,05,16,8.10
2007,10,01,05,17,8.00
2007,10,01,05,18,8.00
2007,10,01,05,19,8.00
2007,10,01,05,20,8.00
2007,10,01,05,21,8.00
2007,10,01,05,22,8.00
2007,10,01,05,23,8.00
2007,10,01,05,24,8.00
2007,10,01,05,25,8.00
2007,10,01,05,26,8.00
2007,10,01,05,27,8.00
2007,10,01,05,28,8.00
2007,10,01,05,29,8.00
2007,10,01,05,30,8.10
2007,10,01,05,31,8.00
2007,10,01,05,32,8.10
2007,10,01,05,33,8.10
2007,10,01,05,34,8.00
2007,10,01,05,35,8.00
2007,10,01,05,36,8.00
2007,10,01,05,37,8.00
2007,10,01,05,38,8.10
2007,10,01,05,39,8.10
2007,10,01,05,40,8.10
2007,10,01,05,41,8.10
2007,10,01,05,42,8.20
2007,10,01,05,43,8.20
2007,10,01,05,44,8.30
2007,10,01,05,45,8.30
2007,10,01,05,46,8.30
2007,10,01,05,47,8.30
2007,10,01,05,48,8.30
2007,10,01,05,49,8.30
2007,10,01,05,50,8.30
2007,10,01,05,51,8.40
2007,10,01,05,52,8.40
2007,10,01,05,53,8.40
2007,10,01,05,54,8.40
2007,10,01,05,55,8.40
2007,10,01,05,56,8.50
2007,10,01,05,57,8.50
2007,10,01,05,58,8.50
2007,10,01,05,59,8.50
2007,10,01,06,00,8.60
2007,10,01,06,01,8.60
2007,10,01,06,02,8.60
2007,10,01,06,03,8.60
2007,10,01,06,04,8.60
2007,10,01,06,05,8.60
2007,10,01,06,06,8.60
2007,10,01,06,07,8.60
2007,10,01,06,08,8.60
2007,10,01,06,09,8.60
2007,10,01,06,10,8.60
2007,10,01,06,11,8.60
2007,10,01,06,12,8.60
2007,10,01,06,13,8.60
2007,10,01,06,14,8.60
2007,10,01,06,15,8.60
2007,10,01,06,16,8.60
2007,10,01,06,17,8.60
2007,10,01,06,18,8.60
2007,10,01,06,19,8.70
2007,10,01,06,20,8.60
2007,10,01,06,21,8.70
2007,10,01,06,22,8.60
2007,10,01,06,23,8.60
2007,10,01,06,24,8.60
2007,10,01,06,25,8.60
2007,10,01,06,26,8.50
2007,10,01,06,27,8.50
2007,10,01,06,28,8.40
2007,10,01,06,29,8.40
2007,10,01,06,30,8.40
2007,10,01,06,31,8.30
2007,10,01,06,32,8.30
2007,10,01,06,33,8.30
2007,10,01,06,34,8.20
2007,10,01,06,35,8.20
2007,10,01,06,36,8.20
2007,10,01,06,37,8.20
2007,10,01,06,38,8.10
2007,10,01,06,39,8.10
2007,10,01,06,40,8.10
2007,10,01,06,41,8.10
2007,10,01,06,42,8.10
2007,10,01,06,43,8.00
2007,10,01,06,44,8.00
2007,10,01,06,45,8.00
2007,10,01,06,46,8.00
2007,10,01,06,47,7.90
2007,10,01,06,48,7.90
2007,10,01,06,49,7.90
2007,10,01,06,50,7.90
2007,10,01,06,51,7.90
2007,10,01,06,52,7.90
2007,10,01,06,53,7.90
2007,10,01,06,54,7.90
2007,10,01,06,55,7.90
2007,10,01,06,56,7.90
2007,10,01,06,57,7.90
2007,10,01,06,58,7.80
2007,10,01,06,59,7.80
2007,10,01,07,00,7.80
2007,10,01,07,01,7.80
2007,10,01,07,02,7.80
2007,10,01,07,03,7.80
2007,10,01,07,04,7.80
2007,10,01,07,05,7.80
2007,10,01,07,06,7.80
2007,10,01,07,07,7.80
2007,10,01,07,08,7.80
2007,10,01,07,09,7.80
2007,10,01,07,10,7.80
2007,10,01,07,11,7.80
2007,10,01,07,12,7.80
2007,10,01,07,13,7.80
2007,10,01,07,14,7.80
2007,10,01,07,15,7.80
2007,10,01,07,16,7.80
2007,10,01,07,17,7.80
2007,10,01,07,18,7.80
2007,10,01,07,19,7.80
2007,10,01,07,20,7.80
2007,10,01,07,21,7.80
2007,10,01,07,22,7.80
2007,10,01,07,23,7.80
2007,10,01,07,24,7.70
2007,10,01,07,25,7.60
2007,10,01,07,26,7.60
2007,10,01,07,27,7.50
2007,10,01,07,28,7.40
2007,10,01,07,29,7.40
2007,10,01,07,30,7.40
2007,10,01,07,31,7.40
2007,10,01,07,32,7.50
2007,10,01,07,33,7.60
2007,10,01,07,34,7.60
2007,10,01,07,35,7.60
2007,10,01,07,36,7.60
2007,10,01,07,37,7.60
2007,10,01,07,38,7.60
2007,10,01,07,39,7.60
2007,10,01,07,40,7.60
2007,10,01,07,41,7.50
2007,10,01,07,42,7.50
2007,10,01,07,43,7.40
2007,10,01,07,44,7.40
2007,10,01,07,45,7.40
2007,10,01,07,46,7.50
2007,10,01,07,47,7.50
2007,10,01,07,48,7.60
2007,10,01,07,49,7.60
2007,10,01,07,50,7.50
2007,10,01,07,51,7.50
2007,10,01,07,52,7.50
2007,10,01,07,53,7.50
2007,10,01,07,54,7.50
2007,10,01,07,55,7.50
2007,10,01,07,56,7.50
2007,10,01,07,57,7.50
2007,10,01,07,58,7.40
2007,10,01,07,59,7.40
2007,10,01,08,00,7.40
2007,10,01,08,01,7.40
2007,10,01,08,02,7.40
2007,10,01,08,03,7.40
2007,10,01,08,04,7.40
2007,10,01,08,05,7.40
2007,10,01,08,06,7.40
2007,10,01,08,07,7.50
2007,10,01,08,08,7.50
2007,10,01,08,09,7.60
2007,10,01,08,10,7.60
2007,10,01,08,11,7.70
2007,10,01,08,12,7.70
2007,10,01,08,13,7.70
2007,10,01,08,14,7.80
2007,10,01,08,15,7.80
2007,10,01,08,16,7.80
2007,10,01,08,17,7.80
2007,10,01,08,18,7.80
2007,10,01,08,19,7.80
2007,10,01,08,20,7.80
2007,10,01,08,21,7.80
2007,10,01,08,22,7.80
2007,10,01,08,23,7.90
2007,10,01,08,24,7.90
2007,10,01,08,25,7.90
2007,10,01,08,26,7.90
2007,10,01,08,27,8.00
2007,10,01,08,28,8.00
2007,10,01,08,29,8.00
2007,10,01,08,30,8.10
2007,10,01,08,31,8.10
2007,10,01,08,32,8.10
2007,10,01,08,33,8.10
2007,10,01,08,34,8.10
2007,10,01,08,35,8.10
2007,10,01,08,36,8.20
2007,10,01,08,37,8.20
2007,10,01,08,38,8.20
2007,10,01,08,39,8.20
2007,10,01,08,40,8.20
2007,10,01,08,41,8.30
2007,10,01,08,42,8.30
2007,10,01,08,43,8.40
2007,10,01,08,44,8.40
2007,10,01,08,45,8.40
2007,10,01,08,46,8.50
2007,10,01,08,47,8.50
2007,10,01,08,48,8.60
2007,10,01,08,49,8.60
2007,10,01,08,50,8.60
2007,10,01,08,51,8.70
2007,10,01,08,52,8.70
2007,10,01,08,53,8.70
2007,10,01,08,54,8.70
2007,10,01,08,55,8.80
2007,10,01,08,56,8.80
2007,10,01,08,57,8.80
2007,10,01,08,58,8.90
2007,10,01,08,59,8.90
2007,10,01,09,00,8.90
2007,10,01,09,01,9.00
2007,10,01,09,02,9.00
2007,10,01,09,03,9.10
2007,10,01,09,04,9.10
2007,10,01,09,05,9.20
2007,10,01,09,06,9.20
2007,10,01,09,07,9.20
2007,10,01,09,08,9.30
2007,10,01,09,09,9.30
2007,10,01,09,10,9.40
2007,10,01,09,11,9.40
2007,10,01,09,12,9.50
2007,10,01,09,13,9.60
2007,10,01,09,14,9.70
2007,10,01,09,15,9.70
2007,10,01,09,16,9.80
2007,10,01,09,17,9.90
2007,10,01,09,18,10.00
2007,10,01,09,19,10.10
2007,10,01,09,20,10.20
2007,10,01,09,21,10.30
2007,10,01,09,22,10.40
2007,10,01,09,23,10.50
2007,10,01,09,24,10.60
2007,10,01,09,25,10.70
2007,10,01,09,26,10.70
2007,10,01,09,27,10.80
2007,10,01,09,28,10.90
2007,10,01,09,29,10.90
2007,10,01,09,30,11.00
2007,10,01,09,31,11.00
2007,10,01,09,32,11.00
2007,10,01,09,33,11.00
2007,10,01,09,34,11.10
2007,10,01,09,35,11.20
2007,10,01,09,36,11.20
2007,10,01,09,37,11.20
2007,10,01,09,38,11.20
2007,10,01,09,39,11.20
2007,10,01,09,40,11.30
2007,10,01,09,41,11.30
2007,10,01,09,42,11.40
2007,10,01,09,43,11.50
2007,10,01,09,44,11.50
2007,10,01,09,45,11.60
2007,10,01,09,46,11.60
2007,10,01,09,47,11.70
2007,10,01,09,48,11.70
2007,10,01,09,49,11.70
2007,10,01,09,50,11.80
2007,10,01,09,51,11.80
2007,10,01,09,52,12.00
2007,10,01,09,53,12.00
2007,10,01,09,54,12.10
2007,10,01,09,55,12.10
2007,10,01,09,56,12.20
2007,10,01,09,57,12.20
2007,10,01,09,58,12.10
2007,10,01,09,59,12.00
2007,10,01,10,00,11.90
2007,10,01,10,01,11.90
2007,10,01,10,02,11.90
2007,10,01,10,03,11.80
2007,10,01,10,04,11.70
2007,10,01,10,05,11.60
2007,10,01,10,06,11.60
2007,10,01,10,07,11.60
2007,10,01,10,08,11.60
2007,10,01,10,09,11.60
2007,10,01,10,10,11.60
2007,10,01,10,11,11.60
2007,10,01,10,12,11.60
2007,10,01,10,13,11.60
2007,10,01,10,14,11.60
2007,10,01,10,15,11.60
2007,10,01,10,16,11.60
2007,10,01,10,17,11.50
2007,10,01,10,18,11.50
2007,10,01,10,19,11.40
2007,10,01,10,20,11.40
2007,10,01,10,21,11.40
2007,10,01,10,22,11.40
2007,10,01,10,23,11.30
2007,10,01,10,24,11.20
2007,10,01,10,25,11.20
2007,10,01,10,26,11.20
2007,10,01,10,27,11.20
2007,10,01,10,28,11.10
2007,10,01,10,29,11.10
2007,10,01,10,30,11.10
2007,10,01,10,31,11.10
2007,10,01,10,32,11.20
2007,10,01,10,33,11.20
2007,10,01,10,34,11.30
2007,10,01,10,35,11.40
2007,10,01,10,36,11.40
2007,10,01,10,37,11.40
2007,10,01,10,38,11.50
2007,10,01,10,39,11.60
2007,10,01,10,40,11.60
2007,10,01,10,41,11.60
2007,10,01,10,42,11.70
2007,10,01,10,43,11.80
2007,10,01,10,44,11.80
2007,10,01,10,45,11.80
2007,10,01,10,46,11.90
2007,10,01,10,47,12.00
2007,10,01,10,48,12.00
2007,10,01,10,49,12.10
2007,10,01,10,50,12.00
2007,10,01,10,51,11.90
2007,10,01,10,52,11.80
2007,10,01,10,53,11.70
2007,10,01,10,54,11.60
2007,10,01,10,55,11.60
2007,10,01,10,56,11.50
2007,10,01,10,57,11.50
2007,10,01,10,58,11.40
2007,10,01,10,59,11.40
2007,10,01,11,00,11.40
2007,10,01,11,01,11.40
2007,10,01,11,02,11.40
2007,10,01,11,03,11.40
2007,10,01,11,04,11.40
2007,10,01,11,05,11.40
2007,10,01,11,06,11.40
2007,10,01,11,07,11.40
2007,10,01,11,08,11.30
2007,10,01,11,09,11.30
2007,10,01,11,10,11.30
2007,10,01,11,11,11.30
2007,10,01,11,12,11.30
2007,10,01,11,13,11.30
2007,10,01,11,14,11.30
2007,10,01,11,15,11.40
2007,10,01,11,16,11.40
2007,10,01,11,17,11.50
2007,10,01,11,18,11.50
2007,10,01,11,19,11.60
2007,10,01,11,20,11.70
2007,10,01,11,21,11.80
2007,10,01,11,22,11.90
2007,10,01,11,23,12.00
2007,10,01,11,24,12.10
2007,10,01,11,25,12.20
2007,10,01,11,26,12.30
2007,10,01,11,27,12.30
2007,10,01,11,28,12.40
2007,10,01,11,29,12.40
2007,10,01,11,30,12.40
2007,10,01,11,31,12.50
2007,10,01,11,32,12.50
2007,10,01,11,33,12.50
2007,10,01,11,34,12.60
2007,10,01,11,35,12.60
2007,10,01,11,36,12.60
2007,10,01,11,37,12.60
2007,10,01,11,38,12.60
2007,10,01,11,39,12.60
2007,10,01,11,40,12.50
2007,10,01,11,41,12.50
2007,10,01,11,42,12.50
2007,10,01,11,43,12.50
2007,10,01,11,44,12.40
2007,10,01,11,45,12.40
2007,10,01,11,46,12.40
2007,10,01,11,47,12.40
2007,10,01,11,48,12.50
2007,10,01,11,49,12.50
2007,10,01,11,50,12.60
2007,10,01,11,51,12.70
2007,10,01,11,52,12.80
2007,10,01,11,53,12.90
2007,10,01,11,54,12.90
2007,10,01,11,55,12.90
2007,10,01,11,56,12.90
2007,10,01,11,57,12.90
2007,10,01,11,58,12.90
2007,10,01,11,59,12.80
2007,10,01,12,00,12.80
2007,10,01,12,01,12.70
2007,10,01,12,02,12.70
2007,10,01,12,03,12.70
2007,10,01,12,04,12.80
2007,10,01,12,05,12.80
2007,10,01,12,06,12.90
2007,10,01,12,07,13.00
2007,10,01,12,08,13.10
2007,10,01,12,09,13.20
2007,10,01,12,10,13.20
2007,10,01,12,11,13.20
2007,10,01,12,12,13.20
2007,10,01,12,13,13.30
2007,10,01,12,14,13.30
2007,10,01,12,15,13.40
2007,10,01,12,16,13.40
2007,10,01,12,17,13.50
2007,10,01,12,18,13.60
2007,10,01,12,19,13.50
2007,10,01,12,20,13.50
2007,10,01,12,21,13.50
2007,10,01,12,22,13.50
2007,10,01,12,23,13.50
2007,10,01,12,24,13.60
2007,10,01,12,25,13.60
2007,10,01,12,26,13.60
2007,10,01,12,27,13.60
2007,10,01,12,28,13.60
2007,10,01,12,29,13.70
2007,10,01,12,30,13.70
2007,10,01,12,31,13.70
2007,10,01,12,32,13.70
2007,10,01,12,33,13.70
2007,10,01,12,34,13.80
2007,10,01,12,35,13.80
2007,10,01,12,36,13.80
2007,10,01,12,37,13.90
2007,10,01,12,38,13.90
2007,10,01,12,39,13.80
2007,10,01,12,40,13.80
2007,10,01,12,41,13.70
2007,10,01,12,42,13.70
2007,10,01,12,43,13.70
2007,10,01,12,44,13.70
2007,10,01,12,45,13.80
2007,10,01,12,46,13.90
2007,10,01,12,47,13.90
2007,10,01,12,48,14.00
2007,10,01,12,49,14.00
2007,10,01,12,50,14.00
2007,10,01,12,51,14.10
2007,10,01,12,52,14.10
2007,10,01,12,53,14.20
2007,10,01,12,54,14.30
2007,10,01,12,55,14.50
2007,10,01,12,56,14.70
2007,10,01,12,57,14.80
2007,10,01,12,58,15.00
2007,10,01,12,59,15.00
2007,10,01,13,00,15.10
2007,10,01,13,01,15.20
2007,10,01,13,02,15.20
2007,10,01,13,03,15.00
2007,10,01,13,04,15.00
2007,10,01,13,05,14.80
2007,10,01,13,06,14.70
2007,10,01,13,07,14.50
2007,10,01,13,08,14.40
2007,10,01,13,09,14.30
2007,10,01,13,10,14.20
2007,10,01,13,11,14.20
2007,10,01,13,12,14.20
2007,10,01,13,13,14.20
2007,10,01,13,14,14.10
2007,10,01,13,15,14.00
2007,10,01,13,16,14.00
2007,10,01,13,17,13.90
2007,10,01,13,18,13.90
2007,10,01,13,19,13.80
2007,10,01,13,20,13.80
2007,10,01,13,21,13.80
2007,10,01,13,22,13.80
2007,10,01,13,23,13.80
2007,10,01,13,24,13.70
2007,10,01,13,25,13.70
2007,10,01,13,26,13.60
2007,10,01,13,27,13.50
2007,10,01,13,28,13.40
2007,10,01,13,29,13.30
2007,10,01,13,30,13.20
2007,10,01,13,31,13.10
2007,10,01,13,32,13.10
2007,10,01,13,33,13.00
2007,10,01,13,34,13.00
2007,10,01,13,35,13.00
2007,10,01,13,36,13.00
2007,10,01,13,37,13.10
2007,10,01,13,38,13.20
2007,10,01,13,39,13.20
2007,10,01,13,40,13.30
2007,10,01,13,41,13.40
2007,10,01,13,42,13.50
2007,10,01,13,43,13.60
2007,10,01,13,44,13.70
2007,10,01,13,45,13.80
2007,10,01,13,46,13.80
2007,10,01,13,47,14.00
2007,10,01,13,48,14.10
2007,10,01,13,49,14.30
2007,10,01,13,50,14.60
2007,10,01,13,51,14.80
2007,10,01,13,52,15.00
2007,10,01,13,53,15.20
2007,10,01,13,54,15.30
2007,10,01,13,55,15.40
2007,10,01,13,56,15.60
2007,10,01,13,57,15.70
2007,10,01,13,58,15.80
2007,10,01,13,59,15.90
2007,10,01,14,00,16.00
2007,10,01,14,01,16.00
2007,10,01,14,02,16.10
2007,10,01,14,03,16.00
2007,10,01,14,04,15.90
2007,10,01,14,05,15.80
2007,10,01,14,06,15.80
2007,10,01,14,07,15.70
2007,10,01,14,08,15.60
2007,10,01,14,09,15.50
2007,10,01,14,10,15.40
2007,10,01,14,11,15.40
2007,10,01,14,12,15.40
2007,10,01,14,13,15.30
2007,10,01,14,14,15.20
2007,10,01,14,15,15.00
2007,10,01,14,16,15.00
2007,10,01,14,17,15.00
2007,10,01,14,18,14.90
2007,10,01,14,19,14.80
2007,10,01,14,20,14.80
2007,10,01,14,21,14.70
2007,10,01,14,22,14.70
2007,10,01,14,23,14.70
2007,10,01,14,24,14.70
2007,10,01,14,25,14.70
2007,10,01,14,26,14.80
2007,10,01,14,27,14.80
2007,10,01,14,28,14.80
2007,10,01,14,29,14.80
2007,10,01,14,30,14.80
2007,10,01,14,31,14.80
2007,10,01,14,32,14.80
2007,10,01,14,33,14.80
2007,10,01,14,34,14.80
2007,10,01,14,35,15.00
2007,10,01,14,36,15.00
2007,10,01,14,37,15.00
2007,10,01,14,38,15.20
2007,10,01,14,39,15.30
2007,10,01,14,40,15.30
2007,10,01,14,41,15.40
2007,10,01,14,42,15.40
2007,10,01,14,43,15.40
2007,10,01,14,44,15.40
2007,10,01,14,45,15.40
2007,10,01,14,46,15.50
2007,10,01,14,47,15.50
2007,10,01,14,48,15.60
2007,10,01,14,49,15.70
2007,10,01,14,50,15.70
2007,10,01,14,51,15.70
2007,10,01,14,52,15.60
2007,10,01,14,53,15.60
2007,10,01,14,54,15.60
2007,10,01,14,55,15.60
2007,10,01,14,56,15.50
2007,10,01,14,57,15.50
2007,10,01,14,58,15.50
2007,10,01,14,59,15.40
2007,10,01,15,00,15.40
2007,10,01,15,01,15.30
2007,10,01,15,02,15.30
2007,10,01,15,03,15.40
2007,10,01,15,04,15.50
2007,10,01,15,05,15.50
2007,10,01,15,06,15.60
2007,10,01,15,07,15.60
2007,10,01,15,08,15.60
2007,10,01,15,09,15.50
2007,10,01,15,10,15.50
2007,10,01,15,11,15.30
2007,10,01,15,12,15.20
2007,10,01,15,13,15.10
2007,10,01,15,14,15.00
2007,10,01,15,15,15.00
2007,10,01,15,16,15.00
2007,10,01,15,17,15.00
2007,10,01,15,18,14.90
2007,10,01,15,19,14.90
2007,10,01,15,20,14.90
2007,10,01,15,21,14.80
2007,10,01,15,22,14.80
2007,10,01,15,23,14.80
2007,10,01,15,24,14.80
2007,10,01,15,25,14.80
2007,10,01,15,26,14.80
2007,10,01,15,27,14.70
2007,10,01,15,28,14.70
2007,10,01,15,29,14.70
2007,10,01,15,30,14.70
2007,10,01,15,31,14.70
2007,10,01,15,32,14.60
2007,10,01,15,33,14.60
2007,10,01,15,34,14.50
2007,10,01,15,35,14.50
2007,10,01,15,36,14.50
2007,10,01,15,37,14.50
2007,10,01,15,38,14.50
2007,10,01,15,39,14.50
2007,10,01,15,40,14.50
2007,10,01,15,41,14.50
2007,10,01,15,42,14.40
2007,10,01,15,43,14.40
2007,10,01,15,44,14.40
2007,10,01,15,45,14.40
2007,10,01,15,46,14.30
2007,10,01,15,47,14.30
2007,10,01,15,48,14.20
2007,10,01,15,49,14.20
2007,10,01,15,50,14.10
2007,10,01,15,51,14.10
2007,10,01,15,52,14.10
2007,10,01,15,53,14.00
2007,10,01,15,54,13.90
2007,10,01,15,55,13.90
2007,10,01,15,56,13.90
2007,10,01,15,57,13.80
2007,10,01,15,58,13.80
2007,10,01,15,59,13.80
2007,10,01,16,00,13.80
2007,10,01,16,01,13.80
2007,10,01,16,02,13.70
2007,10,01,16,03,13.70
2007,10,01,16,04,13.70
2007,10,01,16,05,13.70
2007,10,01,16,06,13.70
2007,10,01,16,07,13.60
2007,10,01,16,08,13.60
2007,10,01,16,09,13.60
2007,10,01,16,10,13.50
2007,10,01,16,11,13.50
2007,10,01,16,12,13.40
2007,10,01,16,13,13.40
2007,10,01,16,14,13.30
2007,10,01,16,15,13.30
2007,10,01,16,16,13.20
2007,10,01,16,17,13.20
2007,10,01,16,18,13.20
2007,10,01,16,19,13.20
2007,10,01,16,20,13.20
2007,10,01,16,21,13.10
2007,10,01,16,22,13.10
2007,10,01,16,23,13.00
2007,10,01,16,24,13.00
2007,10,01,16,25,12.90
2007,10,01,16,26,12.90
2007,10,01,16,27,12.80
2007,10,01,16,28,12.70
2007,10,01,16,29,12.70
2007,10,01,16,30,12.60
2007,10,01,16,31,12.60
2007,10,01,16,32,12.60
2007,10,01,16,33,12.60
2007,10,01,16,34,12.60
2007,10,01,16,35,12.50
2007,10,01,16,36,12.50
2007,10,01,16,37,12.40
2007,10,01,16,38,12.40
2007,10,01,16,39,12.40
2007,10,01,16,40,12.40
2007,10,01,16,41,12.40
2007,10,01,16,42,12.40
2007,10,01,16,43,12.40
2007,10,01,16,44,12.40
2007,10,01,16,45,12.40
2007,10,01,16,46,12.50
2007,10,01,16,47,12.50
2007,10,01,16,48,12.50
2007,10,01,16,49,12.60
2007,10,01,16,50,12.60
2007,10,01,16,51,12.60
2007,10,01,16,52,12.60
2007,10,01,16,53,12.60
2007,10,01,16,54,12.60
2007,10,01,16,55,12.60
2007,10,01,16,56,12.60
2007,10,01,16,57,12.60
2007,10,01,16,58,12.60
2007,10,01,16,59,12.70
2007,10,01,17,00,12.70
2007,10,01,17,01,12.70
2007,10,01,17,02,12.60
2007,10,01,17,03,12.60
2007,10,01,17,04,12.60
2007,10,01,17,05,12.60
2007,10,01,17,06,12.60
2007,10,01,17,07,12.60
2007,10,01,17,08,12.60
2007,10,01,17,09,12.60
2007,10,01,17,10,12.60
2007,10,01,17,11,12.60
2007,10,01,17,12,12.60
2007,10,01,17,13,12.60
2007,10,01,17,14,12.70
2007,10,01,17,15,12.70
2007,10,01,17,16,12.80
2007,10,01,17,17,12.80
2007,10,01,17,18,12.90
2007,10,01,17,19,12.90
2007,10,01,17,20,12.90
2007,10,01,17,21,12.90
2007,10,01,17,22,12.90
2007,10,01,17,23,13.00
2007,10,01,17,24,12.90
2007,10,01,17,25,12.90
2007,10,01,17,26,12.90
2007,10,01,17,27,12.90
2007,10,01,17,28,12.90
2007,10,01,17,29,12.90
2007,10,01,17,30,12.90
2007,10,01,17,31,13.00
2007,10,01,17,32,13.00
2007,10,01,17,33,13.10
2007,10,01,17,34,13.10
2007,10,01,17,35,13.00
2007,10,01,17,36,13.00
2007,10,01,17,37,13.00
2007,10,01,17,38,13.00
2007,10,01,17,39,13.00
2007,10,01,17,40,13.00
2007,10,01,17,41,13.00
2007,10,01,17,42,13.00
2007,10,01,17,43,13.00
2007,10,01,17,44,13.00
2007,10,01,17,45,13.00
2007,10,01,17,46,13.00
2007,10,01,17,47,13.00
2007,10,01,17,48,13.00
2007,10,01,17,49,13.00
2007,10,01,17,50,13.00
2007,10,01,17,51,13.00
2007,10,01,17,52,13.00
2007,10,01,17,53,13.00
2007,10,01,17,54,13.00
2007,10,01,17,55,13.00
2007,10,01,17,56,13.10
2007,10,01,17,57,13.10
2007,10,01,17,58,13.10
2007,10,01,17,59,13.10
2007,10,01,18,00,13.00
2007,10,01,18,01,13.00
2007,10,01,18,02,13.00
2007,10,01,18,03,12.90
2007,10,01,18,04,12.90
2007,10,01,18,05,12.90
2007,10,01,18,06,12.80
2007,10,01,18,07,12.80
2007,10,01,18,08,12.80
2007,10,01,18,09,12.80
2007,10,01,18,10,12.70
2007,10,01,18,11,12.70
2007,10,01,18,12,12.70
2007,10,01,18,13,12.60
2007,10,01,18,14,12.60
2007,10,01,18,15,12.60
2007,10,01,18,16,12.50
2007,10,01,18,17,12.50
2007,10,01,18,18,12.50